{"data":{"norad_id":46356,"intl_designator":"2020-062AH","name":"STARLINK-1665","alt_names":[],"object_type":"PAYLOAD","status":"ACTIVE","operator":null,"country":"US","launch_date":"2020-09-03","launch_site_code":"AFETR","launch_vehicle":null,"mission":null,"orbit_class":"UNKNOWN","rcs_meters":null,"size_class":null,"mass_kg":null,"dimensions":null,"purposes":["comms"],"wikipedia_slug":null,"has_3d_model":false,"image_url":null,"decayed_at":null,"tle_current":{"epoch":"2026-05-25T00:00:02.000160Z","epoch_age_seconds":71517,"freshness":"FRESH","line1":"1 46356U 20062AH  26145.00002315  .00205774  00000+0  93835-3 0  9998","line2":"2 46356  53.0385 317.9751 0005458 220.5237 338.9055 15.82683150  6004","mean_motion":15.8268315,"eccentricity":0.0005458,"inclination_deg":53.0385,"raan_deg":317.9751,"arg_perigee_deg":220.5237,"mean_anomaly_deg":338.9055,"bstar":0.00093835,"rev_number":600,"period_min":90.984730582366,"perigee_km":319.19897750629,"apogee_km":326.51378187956,"semimajor_km":6700.9933796929,"source":"CELESTRAK","updated_at":"2026-05-25T13:38:16.473075Z"}}}